Weather History for KVLD - January, 2014

Change the Weather History Date:

Sunday, January 19, 2014

  Actual Average Record
Temperature  
Mean Temperature 51 °F 50 °F  
Max Temperature 67 °F 62 °F 69 °F (2015)
Min Temperature 34 °F 38 °F 32 °F (2015)
Degree Days  
Heating Degree Days 14 15  
Month to date heating degree days 276 285  
Since 1 July heating degree days 640 898  
Moisture  
Dew Point 36 °F    
Average Humidity 59    
Maximum Humidity 86    
Minimum Humidity 31    
Precipitation  
Precipitation 0.01 in 0.11 in 0.00 in (2015)
Month to date precipitation 1.48 2.94  
Year to date precipitation 1.48 2.94  
Sea Level Pressure  
Sea Level Pressure 30.15 in    
Wind  
Wind Speed 3 mph (SSW)    
Max Wind Speed 10 mph    
Max Gust Speed 18 mph    
Visibility 10 miles    
Events      
T = Trace of Precipitation, MM = Missing Value Source: NWS Daily Summary

Daily Weather History Graph

Daily Weather History Graph

Search for Another Location

Airport or City:

Trip Planner

Search our weather history database for the weather conditions in past years. The results will help you decide how hot, cold, wet, or windy it might be!

Date:

Astronomy

Jan. 19, 2014 Rise Set
Actual Time 7:30 AM EST 5:57 PM EST
Civil Twilight 7:04 AM EST 6:23 PM EST
Nautical Twilight 6:35 AM EST 6:52 PM EST
Astronomical Twilight 6:06 AM EST 7:21 PM EST
Moon 9:17 PM EST (1/19) 9:15 AM EST (1/19)
Length of Visible Light 11h 18m
Length of Day
10h 27m
Waning Gibbous, 89% of the Moon is Illuminated
Jan 19
Waning Gibbous
Jan 24
Last Quarter
Jan 30
New
Feb 6
First Quarter
Feb 14
Full

Hourly Weather History & Observations

Time (EST) Temp. Windchill Dew Point Humidity Pressure Visibility Wind Dir Wind Speed Gust Speed Precip Events Conditions
12:53 AM 35.1 °F 32.2 °F 28.0 °F 76% 30.16 in 10.0 mi South 3.5 mph - N/A   Clear
1:53 AM 36.0 °F - 27.0 °F 70% 30.17 in 10.0 mi Calm Calm - N/A   Clear
2:53 AM 35.1 °F 32.2 °F 28.9 °F 78% 30.17 in 10.0 mi South 3.5 mph - N/A   Clear
3:53 AM 34.0 °F 28.8 °F 28.9 °F 82% 30.16 in 10.0 mi South 5.8 mph - N/A   Clear
4:53 AM 35.1 °F - 28.9 °F 78% 30.15 in 10.0 mi Calm Calm - N/A   Clear
5:53 AM 37.0 °F - 32.0 °F 82% 30.16 in 10.0 mi Calm Calm - N/A   Overcast
6:53 AM 39.9 °F 35.8 °F 35.1 °F 83% 30.15 in 10.0 mi South 5.8 mph - N/A   Mostly Cloudy
7:53 AM 44.1 °F 42.5 °F 37.9 °F 79% 30.14 in 10.0 mi SSW 3.5 mph - N/A   Clear
8:53 AM 51.1 °F - 41.0 °F 68% 30.17 in 10.0 mi Variable 5.8 mph - N/A   Mostly Cloudy
9:53 AM 48.9 °F - 44.1 °F 83% 30.19 in 10.0 mi Variable 3.5 mph - 0.01 in   Overcast
10:53 AM 55.9 °F - 46.0 °F 69% 30.19 in 10.0 mi Variable 4.6 mph - N/A   Clear
11:53 AM 61.0 °F - 45.0 °F 56% 30.17 in 10.0 mi Variable 6.9 mph - N/A   Clear
12:53 PM 64.0 °F - 43.0 °F 46% 30.14 in 10.0 mi West 8.1 mph - N/A   Clear
1:53 PM 66.0 °F - 41.0 °F 40% 30.12 in 10.0 mi Variable 5.8 mph - N/A   Partly Cloudy
2:53 PM 66.0 °F - 36.0 °F 33% 30.10 in 10.0 mi West 9.2 mph - N/A   Clear
3:53 PM 66.0 °F - 37.0 °F 34% 30.10 in 10.0 mi Calm Calm - N/A   Clear
4:53 PM 64.0 °F - 34.0 °F 33% 30.12 in 10.0 mi Variable 4.6 mph - N/A   Clear
5:53 PM 59.0 °F - 35.1 °F 41% 30.12 in 10.0 mi Variable 3.5 mph - N/A   Clear
6:53 PM 50.0 °F - 36.0 °F 59% 30.13 in 10.0 mi Calm Calm - N/A   Clear
7:53 PM 45.0 °F - 35.1 °F 68% 30.14 in 10.0 mi Calm Calm - N/A   Clear
8:53 PM 44.1 °F - 37.0 °F 76% 30.15 in 10.0 mi Calm Calm - N/A   Clear
9:53 PM 41.0 °F - 34.0 °F 76% 30.16 in 10.0 mi Calm Calm - N/A   Clear
10:53 PM 39.9 °F - 35.1 °F 83% 30.17 in 10.0 mi Calm Calm - N/A   Clear
11:53 PM 39.0 °F - 34.0 °F 82% 30.16 in 10.0 mi Calm Calm - N/A   Clear